[TLELIST] Archives

 

Current TLEs

December 24th 2007 PST

HST 1 20580U 90037B 07355.53742246 +.00000436 +00000-0 +20967-4 0 00326 2 20580 028.4683 048.3648 0003558 278.4669 081.5519 15.00317671768128 ISS (ZARYA) 1 25544U 98067A 07355.53401726 .00026271 00000-0 15550-3 0 5519 2 25544 051.6405 217.8801 0001088 003.6889 073.6141 15.77897480520332 CXO 1 25867U 99040B 07355.37500000 .00000353 00000-0 10000-3 0 1475 2 25867 062.8838 085.0435 6519152 281.2174 354.1653 00.37802539 2954 ____________________________________________________________________ These 2-Line ...Continue Reading

Current TLEs

December 23rd 2007 PST

HST 1 20580U 90037B 07354.60611737 +.00000444 +00000-0 +21574-4 0 00428 2 20580 028.4682 054.4378 0003607 268.6624 091.3555 15.00317197767987 ISS (ZARYA) 1 25544U 98067A 07354.92035880 +.00026641 +00000-0 +15785-3 0 05460 2 25544 051.6401 221.0498 0001051 008.0116 181.1329 15.77866565520231 CXO 1 25867U 99040B 07352.75000000 .00000487 00000-0 10000-3 0 1466 2 25867 062.8618 085.1438 6517506 281.2166 356.8647 00.37805130 2947 ____________________________________________________________________ These 2-Line ...Continue Reading

Current TLEs

December 22nd 2007 PST

HST 1 20580U 90037B 07354.20698647 .00000427 00000-0 20304-4 0 307 2 20580 028.4681 057.0414 0003738 263.8020 096.2151 15.00316865767929 ISS (ZARYA) 1 25544U 98067A 07354.52106367 .00027120 00000-0 16074-3 0 5448 2 25544 051.6403 223.1119 0000907 008.2490 071.2691 15.77848117520179 CXO 1 25867U 99040B 07352.75000000 .00000487 00000-0 10000-3 0 1466 2 25867 062.8618 085.1438 6517506 281.2166 356.8647 00.37805130 2947 ____________________________________________________________________ These 2-Line ...Continue Reading

Current TLEs

December 21st 2007 PST

HST 1 20580U 90037B 07352.54394143 +.00000407 +00000-0 +18702-4 0 00303 2 20580 028.4679 067.8851 0003768 246.8271 113.1921 15.00315836767675 ISS (ZARYA) 1 25544U 98067A 07353.69111191 .00025505 00000-0 15177-3 0 5376 2 25544 051.6406 227.3986 0000767 011.5126 030.5369 15.77796497520046 CXO 1 25867U 99040B 07352.75000000 .00000487 00000-0 10000-3 0 1466 2 25867 062.8618 085.1438 6517506 281.2166 356.8647 00.37805130 2947 ____________________________________________________________________ These 2-Line ...Continue Reading

Current TLEs

December 20th 2007 PST

HST 1 20580U 90037B 07352.54394142 .00000402 00000-0 18338-4 0 290 2 20580 028.4679 067.8852 0003777 246.7969 113.2220 15.00315805767678 ISS (ZARYA) 1 25544U 98067A 07352.80469291 .00024000 00000-0 14340-3 0 5331 2 25544 051.6409 231.9754 0000534 012.0262 031.7553 15.77743734519909 CXO 1 25867U 99040B 07352.75000000 .00000487 00000-0 10000-3 0 1466 2 25867 062.8618 085.1438 6517506 281.2166 356.8647 00.37805130 2947 ____________________________________________________________________ These 2-Line ...Continue Reading

Current TLEs

December 19th 2007 PST

HST 1 20580U 90037B 07350.68133076 .00000380 00000-0 16576-4 0 286 2 20580 028.4676 080.0307 0003795 228.4973 131.5291 15.00314713767396 ISS (ZARYA) 1 25544U 98067A 07351.86365100 .00024786 00000-0 14825-3 0 5283 2 25544 051.6405 236.8350 0000615 006.7915 088.4489 15.77699686519752 CXO 1 25867U 99040B 07352.75000000 .00000487 00000-0 10000-3 0 1466 2 25867 062.8618 085.1438 6517506 281.2166 356.8647 00.37805130 2947 ____________________________________________________________________ These 2-Line ...Continue Reading

Current TLEs

December 18th 2007 PST

HST 1 20580U 90037B 07350.68133076 .00000380 00000-0 16576-4 0 286 2 20580 028.4676 080.0307 0003795 228.4973 131.5291 15.00314713767396 ISS (ZARYA) 1 25544U 98067A 07351.39905093 .00024374 00000-0 14602-3 0 5255 2 25544 051.6405 239.2371 0000687 355.5250 339.1506 15.77674200519670 CXO 1 25867U 99040B 07347.41666667 .00000492 00000-0 10000-3 0 1455 2 25867 062.8301 085.2741 6507512 281.2250 350.9498 00.37805367 2923 ____________________________________________________________________ These 2-Line ...Continue Reading

Current TLEs

December 17th 2007 PST

HST 1 20580U 90037B 07348.68567561 +.00000367 +00000-0 +15571-4 0 00361 2 20580 028.4669 093.0434 0003812 209.2681 150.7699 15.00313663767091 ISS (ZARYA) 1 25544U 98067A 07350.28061578 .00029064 00000-0 17359-3 0 5201 2 25544 051.6402 245.0088 0000790 336.5074 121.7125 15.77634216519502 CXO 1 25867U 99040B 07347.41666667 .00000492 00000-0 10000-3 0 1455 2 25867 062.8301 085.2741 6507512 281.2250 350.9498 00.37805367 2923 ____________________________________________________________________ These 2-Line ...Continue Reading

Current TLEs

December 16th 2007 PST

HST 1 20580U 90037B 07347.75436994 .00000345 00000-0 13907-4 0 269 2 20580 028.4667 099.1162 0003786 199.6582 160.3868 15.00313113766955 ISS (ZARYA) 1 25544U 98067A 07349.33112544 .00030916 00000-0 18476-3 0 5169 2 25544 051.6398 249.9108 0000663 342.2866 119.7880 15.77585625519351 CXO 1 25867U 99040B 07347.41666667 .00000492 00000-0 10000-3 0 1455 2 25867 062.8301 085.2741 6507512 281.2250 350.9498 00.37805367 2923 ____________________________________________________________________ These 2-Line ...Continue Reading

Current TLEs

December 15th 2007 PST

HST 1 20580U 90037B 07347.75436994 .00000345 00000-0 13907-4 0 269 2 20580 028.4667 099.1162 0003786 199.6582 160.3868 15.00313113766955 ISS (ZARYA) 1 25544U 98067A 07348.31698074 .00034760 00000-0 20765-3 0 5090 2 25544 051.6405 255.1434 0000641 338.8104 119.8608 15.77531738519190 CXO 1 25867U 99040B 07347.41666667 .00000492 00000-0 10000-3 0 1455 2 25867 062.8301 085.2741 6507512 281.2250 350.9498 00.37805367 2923 ____________________________________________________________________ These 2-Line ...Continue Reading
  • This mailing list is a public mailing list - anyone may join or leave, at any time.
  • This mailing list is announce-only.

International Space Station (ISS) / Hubble Space Telescope (HST) / Chandra X-Ray Observatory Orbital Data via EMAIL

Privacy Policy:

Private list